timestamp,surface_pressure_avg,surface_temp_avg,battery_voltage,lat,long
2018-08-11 00:00:00+00:00,385.283,17.8,13.05,47.84626,-54.09684
2018-08-11 00:10:00+00:00,373.6613,17.85,12.97,47.84626,-54.09684
2018-08-11 00:20:00+00:00,361.903,17.9,13.05,47.84626,-54.09684
2018-08-11 00:30:00+00:00,360.1079,17.88,13.05,47.84626,-54.09684
2018-08-11 00:40:00+00:00,354.9513,17.84,13.05,47.84626,-54.09684
2018-08-11 00:50:00+00:00,343.5995,17.88,13.05,47.84626,-54.09684
2018-08-11 01:00:00+00:00,340.1629,17.9,13.05,47.84626,-54.09684
2018-08-11 01:10:00+00:00,338.1696,17.89,12.97,47.84626,-54.09684
2018-08-11 01:20:00+00:00,325.818,17.9,13.05,47.84626,-54.09684
2018-08-11 01:30:00+00:00,313.4413,17.9,13.05,47.84626,-54.09684
2018-08-11 01:40:00+00:00,308.9597,17.92,13.05,47.84626,-54.09684
2018-08-11 01:50:00+00:00,301.3013,17.99,13.05,47.84626,-54.09684
2018-08-11 02:00:00+00:00,285.1214,18.0,12.97,47.84626,-54.09684
2018-08-11 02:10:00+00:00,272.213,18.0,12.89,47.84626,-54.09684
2018-08-11 02:20:00+00:00,268.4831,18.02,12.97,47.84626,-54.09684
2018-08-11 02:30:00+00:00,264.4198,18.07,12.97,47.84626,-54.09684
2018-08-11 02:40:00+00:00,251.6181,18.1,12.97,47.84626,-54.09684
2018-08-11 02:50:00+00:00,241.1464,18.1,13.05,47.84626,-54.09684
2018-08-11 03:00:00+00:00,237.2864,18.14,12.97,47.84626,-54.09684
2018-08-11 03:10:00+00:00,230.3315,18.18,12.89,47.84626,-54.09684
2018-08-11 03:20:00+00:00,218.5931,18.2,12.97,47.84626,-54.09684
2018-08-11 03:30:00+00:00,206.3281,18.2,12.97,47.84626,-54.09684
2018-08-11 03:40:00+00:00,201.4564,18.2,12.97,47.84626,-54.09684
2018-08-11 03:50:00+00:00,197.2714,18.2,12.97,47.84626,-54.09684
2018-08-11 04:00:00+00:00,189.7198,18.29,12.97,47.84626,-54.09684
2018-08-11 04:10:00+00:00,185.9531,18.3,12.89,47.84626,-54.09684
2018-08-11 04:20:00+00:00,184.1998,18.3,12.97,47.84626,-54.09684
2018-08-11 04:30:00+00:00,181.9681,18.3,12.97,47.84626,-54.09684
2018-08-11 04:40:00+00:00,181.2031,18.34,12.97,47.84626,-54.09684
2018-08-11 04:50:00+00:00,179.2781,18.36,12.97,47.84626,-54.09684
2018-08-11 05:00:00+00:00,177.9632,18.38,12.89,47.84626,-54.09684
2018-08-11 05:10:00+00:00,179.5098,18.38,12.81,47.84626,-54.09684
2018-08-11 05:20:00+00:00,180.9981,18.39,12.89,47.84626,-54.09684
2018-08-11 05:30:00+00:00,180.6981,18.4,12.89,47.84626,-54.09684
2018-08-11 05:40:00+00:00,180.9332,18.4,12.97,47.84626,-54.09684
2018-08-11 05:50:00+00:00,183.1965,18.37,12.97,47.84626,-54.09684
2018-08-11 06:00:00+00:00,187.0598,18.3,12.89,47.84626,-54.09684
2018-08-11 06:10:00+00:00,189.0481,18.3,12.81,47.84626,-54.09684
2018-08-11 06:20:00+00:00,191.8515,18.3,12.89,47.84626,-54.09684
2018-08-11 06:30:00+00:00,200.2598,18.3,12.89,47.84626,-54.09684
2018-08-11 06:40:00+00:00,208.4331,18.26,12.97,47.84626,-54.09684
2018-08-11 06:50:00+00:00,210.4831,18.2,12.97,47.84626,-54.09684
2018-08-11 07:00:00+00:00,210.5215,18.2,12.89,47.84626,-54.09684
2018-08-11 07:10:00+00:00,216.6647,18.2,12.81,47.84626,-54.09684
2018-08-11 07:20:00+00:00,223.6598,18.2,12.89,47.84626,-54.09684
2018-08-11 07:30:00+00:00,226.5848,18.2,12.89,47.84626,-54.09684
2018-08-11 07:40:00+00:00,230.0247,18.2,12.97,47.84626,-54.09684
2018-08-11 07:50:00+00:00,237.9831,18.2,12.97,47.84626,-54.09684
2018-08-11 08:00:00+00:00,247.3831,18.2,12.89,47.84626,-54.09684
2018-08-11 08:10:00+00:00,254.9047,18.19,12.81,47.84626,-54.09684
2018-08-11 08:20:00+00:00,261.023,18.19,12.89,47.84626,-54.09684
2018-08-11 08:30:00+00:00,271.0747,18.18,12.89,47.84626,-54.09684
2018-08-11 08:40:00+00:00,280.3681,18.19,12.97,47.84626,-54.09684
2018-08-11 08:50:00+00:00,284.8297,18.2,12.97,47.84626,-54.09684
2018-08-11 09:00:00+00:00,290.483,18.13,12.89,47.84626,-54.09684
2018-08-11 09:10:00+00:00,299.1497,18.1,12.81,47.84626,-54.09684
2018-08-11 09:20:00+00:00,306.8964,18.1,12.89,47.84626,-54.09684
2018-08-11 09:30:00+00:00,313.0247,18.1,12.89,47.84626,-54.09684
2018-08-11 09:40:00+00:00,320.533,18.1,12.97,47.84626,-54.09684
2018-08-11 09:50:00+00:00,328.018,18.1,13.05,47.84626,-54.09684
2018-08-11 10:00:00+00:00,335.8279,18.1,13.13,47.84626,-54.09684
2018-08-11 10:10:00+00:00,343.2679,18.1,13.05,47.84626,-54.09684
2018-08-11 10:20:00+00:00,348.653,18.1,13.05,47.84626,-54.09684
2018-08-11 10:30:00+00:00,352.1763,18.1,13.13,47.84626,-54.09684
2018-08-11 10:40:00+00:00,354.5695,18.15,13.21,47.84626,-54.09684
2018-08-11 10:50:00+00:00,358.5129,18.1,13.37,47.84626,-54.09684
2018-08-11 11:00:00+00:00,359.8129,17.96,13.37,47.84626,-54.09684
2018-08-11 11:10:00+00:00,361.3212,18.1,13.44,47.84626,-54.09684
2018-08-11 11:20:00+00:00,365.4213,18.0,13.68,47.84626,-54.09684
2018-08-11 11:30:00+00:00,369.3895,17.7,14.32,47.84626,-54.09684
2018-08-11 11:40:00+00:00,369.7512,17.69,14.32,47.84626,-54.09684
2018-08-11 11:50:00+00:00,368.3363,17.7,14.08,47.84626,-54.09684
2018-08-11 12:00:00+00:00,365.653,17.7,14.32,47.84626,-54.09684
2018-08-11 12:10:00+00:00,363.7563,17.68,14.08,47.84626,-54.09684
2018-08-11 12:20:00+00:00,362.6995,17.68,15.51,47.84626,-54.09684
2018-08-11 12:30:00+00:00,356.153,17.73,15.44,47.84626,-54.09684
2018-08-11 12:40:00+00:00,349.4246,17.8,15.11,47.84626,-54.09684
2018-08-11 12:50:00+00:00,345.2429,17.7,14.72,47.84626,-54.09684
2018-08-11 13:00:00+00:00,339.2263,17.89,14.56,47.84626,-54.09684
2018-08-11 13:10:00+00:00,331.038,17.9,14.56,47.84626,-54.09684
2018-08-11 13:20:00+00:00,325.0612,17.99,14.64,47.84626,-54.09684
2018-08-11 13:30:00+00:00,316.613,18.0,14.64,47.84626,-54.09684
2018-08-11 13:40:00+00:00,306.2563,18.0,14.64,47.84626,-54.09684
2018-08-11 13:50:00+00:00,296.1979,18.02,14.64,47.84626,-54.09684
2018-08-11 14:00:00+00:00,288.5114,18.05,14.56,47.84626,-54.09684
2018-08-11 14:10:00+00:00,275.3164,18.06,14.48,47.84626,-54.09684
2018-08-11 14:20:00+00:00,264.9297,18.08,14.56,47.84626,-54.09684
2018-08-11 14:30:00+00:00,258.3297,18.08,14.56,47.84626,-54.09684
2018-08-11 14:40:00+00:00,250.8031,18.09,14.56,47.84626,-54.09684
2018-08-11 14:50:00+00:00,238.4664,18.15,14.56,47.84626,-54.09684
2018-08-11 15:00:00+00:00,228.5265,18.28,14.48,47.84626,-54.09684
2018-08-11 15:10:00+00:00,222.5097,18.3,14.4,47.84626,-54.09684
2018-08-11 15:20:00+00:00,214.7981,18.4,14.48,47.84626,-54.09684
2018-08-11 15:30:00+00:00,206.9481,18.5,14.48,47.84626,-54.09684
2018-08-11 15:40:00+00:00,203.3248,18.5,14.48,47.84626,-54.09684
2018-08-11 15:50:00+00:00,198.0314,18.5,14.4,47.84626,-54.09684
2018-08-11 16:00:00+00:00,188.6481,18.5,14.32,47.84626,-54.09684
2018-08-11 16:10:00+00:00,184.0681,18.57,14.32,47.84626,-54.09684
2018-08-11 16:20:00+00:00,182.3181,18.51,14.4,47.84626,-54.09684
2018-08-11 16:30:00+00:00,181.3998,18.54,14.32,47.84626,-54.09684
2018-08-11 16:40:00+00:00,179.8431,18.53,14.32,47.84626,-54.09684
2018-08-11 16:50:00+00:00,176.1048,18.6,14.32,47.84626,-54.09684
2018-08-11 17:00:00+00:00,173.5198,18.62,14.24,47.84626,-54.09684
2018-08-11 17:10:00+00:00,171.6032,18.66,14.16,47.84626,-54.09684
2018-08-11 17:20:00+00:00,170.7348,18.61,14.24,47.84626,-54.09684
2018-08-11 17:30:00+00:00,171.6081,18.62,14.24,47.84626,-54.09684
2018-08-11 17:40:00+00:00,174.7682,18.6,14.24,47.84626,-54.09684
2018-08-11 17:50:00+00:00,180.1598,18.5,14.16,47.84626,-54.09684
2018-08-11 18:00:00+00:00,182.0382,18.3,14.08,47.84626,-54.09684
2018-08-11 18:10:00+00:00,184.0331,18.1,14.0,47.84626,-54.09684
2018-08-11 18:20:00+00:00,190.8798,18.0,14.0,47.84626,-54.09684
2018-08-11 18:30:00+00:00,195.3498,17.98,14.0,47.84626,-54.09684
2018-08-11 18:40:00+00:00,197.3598,17.98,13.92,47.84626,-54.09684
2018-08-11 18:50:00+00:00,201.9881,17.97,13.92,47.84626,-54.09684
2018-08-11 19:00:00+00:00,206.8247,17.9,13.84,47.84626,-54.09684
2018-08-11 19:10:00+00:00,209.5081,17.8,13.76,47.84626,-54.09684
2018-08-11 19:20:00+00:00,214.3331,17.78,13.76,47.84626,-54.09684
2018-08-11 19:30:00+00:00,222.0098,17.7,13.76,47.84626,-54.09684
2018-08-11 19:40:00+00:00,227.9481,17.7,13.76,47.84626,-54.09684
2018-08-11 19:50:00+00:00,234.0648,17.68,13.76,47.84626,-54.09684
2018-08-11 20:00:00+00:00,243.5131,17.7,13.76,47.84626,-54.09684
2018-08-11 20:10:00+00:00,251.1631,17.6,13.68,47.84626,-54.09684
2018-08-11 20:20:00+00:00,254.8748,17.5,13.68,47.84626,-54.09684
2018-08-11 20:30:00+00:00,260.8348,17.4,13.68,47.84626,-54.09684
2018-08-11 20:40:00+00:00,270.2014,17.2,13.68,47.84626,-54.09684
2018-08-11 20:50:00+00:00,279.1064,17.2,13.68,47.84626,-54.09684
2018-08-11 21:00:00+00:00,287.0031,17.1,13.68,47.84626,-54.09684
2018-08-11 21:10:00+00:00,297.4547,17.1,13.53,47.84626,-54.09684
2018-08-11 21:20:00+00:00,310.178,17.0,13.6,47.84626,-54.09684
2018-08-11 21:30:00+00:00,322.5214,17.0,13.6,47.84626,-54.09684
2018-08-11 21:40:00+00:00,331.3912,17.04,13.6,47.84626,-54.09684
2018-08-11 21:50:00+00:00,341.713,17.09,13.6,47.84626,-54.09684
2018-08-11 22:00:00+00:00,352.718,17.06,13.53,47.84626,-54.09684
2018-08-11 22:10:00+00:00,358.3296,17.08,13.37,47.84626,-54.09684
2018-08-11 22:20:00+00:00,360.7546,17.1,13.37,47.84626,-54.09684
2018-08-11 22:30:00+00:00,368.238,17.2,13.29,47.84626,-54.09684
2018-08-11 22:40:00+00:00,376.0413,17.1,13.29,47.84626,-54.09684
2018-08-11 22:50:00+00:00,379.7064,17.12,13.29,47.84626,-54.09684
2018-08-11 23:00:00+00:00,382.6646,17.1,13.21,47.84626,-54.09684
2018-08-11 23:10:00+00:00,390.4645,17.0,13.13,47.84626,-54.09684
2018-08-11 23:20:00+00:00,394.6129,16.9,13.13,47.84626,-54.09684
2018-08-11 23:30:00+00:00,394.4929,17.0,13.13,47.84626,-54.09684
2018-08-11 23:40:00+00:00,395.6863,17.0,13.21,47.84626,-54.09684
2018-08-11 23:50:00+00:00,397.5062,17.0,13.21,47.84626,-54.09684
